Theta_e
316 316 317 317 316 313 312 309 309 309 309 310 309 308 308 308 309 311 314 311 312 313 312 311 312 313 314 311 310 308 311 313 314 312 315 309 313 310 310 312 312 310 313 316 332
315 316 316 316 316 315 313 312 309 309 308 308 308 308 308 309 310 314 311 313 313 311 311 311 310 311 309 312 310 310 310 312 310 309 313 311 313 311 313 313 313 314 316 320 333
315 315 316 316 316 315 312 312 309 308 308 308 307 307 308 309 316 311 311 315 312 310 311 311 311 310 311 312 311 309 312 310 310 310 311 311 312 311 310 313 310 312 314 321 331
314 314 316 316 315 314 313 310 309 307 307 307 307 307 308 312 306 313 314 314 312 310 312 310 309 310 310 311 311 312 310 308 310 310 311 312 311 312 309 311 309 307 313 321 324
314 315 315 315 314 313 311 311 308 307 307 307 307 307 311 312 310 312 314 313 311 311 311 309 310 309 310 309 310 309 309 309 309 309 309 310 310 310 308 306 306 308 315 320 325
314 315 315 315 313 312 312 310 308 307 307 307 307 308 311 309 313 311 313 313 312 311 310 309 308 309 308 309 309 309 309 310 309 310 310 310 308 309 307 306 305 307 311 317 320
314 314 314 314 312 311 310 309 307 307 307 307 308 311 312 307 313 310 310 311 311 311 310 311 310 310 310 311 310 309 311 309 310 310 311 310 309 309 307 306 308 305 303 307 316
314 314 314 313 311 311 310 308 307 308 308 308 308 313 306 310 313 310 311 311 311 312 311 312 313 310 310 308 308 309 305 307 306 309 310 309 305 306 307 307 308 306 304 302 303
314 313 313 312 311 311 310 308 308 308 308 308 310 309 306 311 313 312 311 311 312 312 312 313 310 309 309 307 307 305 305 308 308 308 311 310 308 308 308 307 309 306 304 304 303
314 313 313 312 311 311 309 309 308 308 309 312 312 310 307 308 312 311 311 311 310 310 311 309 306 307 303 305 307 307 308 308 307 310 311 311 309 307 306 307 305 304 303 302 302
314 313 312 312 312 311 309 309 304 305 312 305 307 307 308 312 311 311 311 310 308 306 309 308 309 308 309 306 304 305 308 309 308 308 311 310 308 307 307 305 304 303 303 302 302
313 313 313 312 312 311 309 303 304 307 307 309 309 307 311 311 311 310 311 310 308 308 308 308 308 307 306 305 307 308 308 309 308 309 310 308 308 306 305 306 306 305 304 302 301
314 314 314 313 312 311 310 311 313 313 305 308 308 307 310 311 309 311 309 308 307 308 308 308 308 305 307 306 307 307 307 307 308 307 306 304 305 304 303 304 304 303 302 301 302
314 314 313 313 312 312 311 311 313 311 304 306 310 307 310 309 309 309 309 309 308 308 306 308 307 306 308 307 305 307 306 308 308 308 308 305 305 304 304 304 304 302 301 301 299
314 315 313 312 312 311 310 308 312 309 308 307 310 308 308 308 308 310 308 308 308 308 308 308 308 309 309 308 307 308 306 308 307 306 308 308 305 304 304 306 304 306 304 302 303
311 315 314 313 313 312 311 310 314 310 307 309 312 310 308 308 310 308 310 306 305 308 307 306 307 308 308 306 307 305 305 304 304 303 306 305 305 303 303 304 307 303 305 304 303
307 310 313 314 314 315 314 312 311 311 308 314 313 309 309 310 311 309 310 310 308 309 310 310 310 309 308 308 307 305 306 307 306 307 308 304 306 304 304 304 305 307 307 305 302
301 309 309 309 314 316 315 310 309 306 308 312 312 308 309 309 310 310 309 310 307 304 307 308 310 310 308 308 309 305 306 307 305 307 305 306 307 306 306 308 308 308 307 305 304
302 304 306 308 310 315 312 312 308 306 307 314 312 310 310 310 310 311 309 309 308 304 307 308 308 308 308 307 308 308 307 304 305 292 304 306 305 305 306 309 308 308 306 305 304
300 301 304 307 308 311 310 309 309 311 315 312 313 310 311 311 311 310 309 308 308 305 305 307 308 309 308 307 308 307 305 308 304 302 304 305 305 305 309 310 310 310 308 306 303
300 299 305 307 306 306 311 307 310 310 313 315 312 312 309 311 309 311 310 308 307 306 305 304 305 310 309 309 308 307 308 306 305 306 305 304 305 301 305 308 308 309 308 305 303
297 299 305 306 306 302 308 308 309 312 312 316 314 315 310 309 309 310 310 307 310 305 308 305 306 309 309 307 306 307 307 307 308 307 306 307 308 305 307 307 307 309 307 304 301
295 300 303 305 307 308 306 308 309 310 313 316 316 315 314 312 313 309 308 311 312 309 308 307 307 303 308 309 311 309 307 307 306 306 308 308 309 306 306 308 309 309 305 303 302
294 300 301 303 302 305 307 308 309 308 309 309 309 312 315 317 315 314 314 313 312 312 312 310 308 309 309 308 310 311 308 307 308 308 310 307 310 310 309 309 309 307 304 302 301
296 296 296 303 304 302 304 306 307 308 310 309 309 308 312 313 316 316 316 314 313 312 311 311 310 308 310 311 309 307 309 307 309 310 309 310 307 310 310 309 307 304 302 302 302
292 295 296 296 299 302 302 304 307 306 308 310 311 310 309 311 313 313 314 314 315 312 313 311 310 311 311 310 311 308 309 308 308 309 307 312 307 308 307 304 305 304 302 302 301
293 295 298 296 297 302 302 301 303 306 306 307 309 311 311 310 309 308 310 310 310 310 310 310 312 313 315 311 311 314 311 309 309 308 309 311 310 308 307 306 304 302 300 300 300
Wind_Speed
16 15 12 12 13 13 14 14 13 13 13 13 12 9 9 7 8 6 6 6 7 8 8 8 4 5 4 3 4 3 4 2 6 6 4 4 4 2 1 5 2 5 5 1 14
17 15 13 13 13 14 13 13 14 13 11 10 9 7 7 6 6 9 7 7 7 8 8 9 4 4 3 3 3 5 4 8 4 4 5 6 3 6 3 2 3 2 1 5 21
18 16 14 13 13 13 13 11 12 11 10 9 7 5 4 3 3 6 11 9 8 9 5 5 10 3 3 2 2 3 5 5 3 2 4 7 4 3 6 4 7 9 5 8 13
19 16 15 14 13 13 12 11 10 9 8 6 5 4 3 3 5 1 9 9 9 8 9 6 4 4 3 5 3 3 1 5 4 2 2 5 4 2 6 5 3 8 5 8 8
20 18 16 15 14 12 11 10 11 10 7 5 4 3 3 3 6 2 9 9 8 8 6 4 4 4 6 5 5 3 3 2 1 2 3 2 1 4 6 8 5 3 6 10 11
20 19 17 15 14 12 10 9 10 9 7 5 4 3 4 4 0 4 7 9 7 7 4 4 6 4 5 4 5 4 3 2 0 1 2 1 1 3 2 3 5 5 6 8 9
21 19 18 16 14 12 10 9 8 6 4 3 4 4 1 5 1 4 7 7 6 5 4 3 5 3 4 5 2 4 4 3 2 2 0 2 4 8 4 3 2 6 8 6 12
20 19 18 17 15 12 10 9 8 6 5 4 3 3 4 2 4 6 7 8 8 5 4 5 5 5 4 3 6 5 5 2 2 3 0 3 8 4 3 3 7 6 6 7 10
21 19 18 16 14 12 9 9 7 5 3 1 2 2 4 2 3 6 7 7 9 6 6 6 5 4 4 6 4 6 3 3 5 4 2 3 6 3 3 5 3 4 7 7 8
21 19 18 16 14 12 9 8 6 4 5 4 1 2 1 3 4 7 6 12 4 5 4 6 5 4 3 3 5 5 3 2 3 1 1 1 9 9 8 4 8 9 10 9 10
21 19 14 16 14 13 14 8 4 3 1 4 3 1 1 3 5 4 5 6 3 7 4 3 4 7 10 5 3 6 5 3 2 2 2 5 7 12 10 7 9 11 11 11 11
18 19 17 15 13 12 15 5 4 3 3 3 2 2 1 2 3 1 8 4 4 4 4 5 4 6 6 6 4 4 5 3 2 2 2 5 10 10 9 10 8 9 11 9 8
21 15 13 14 14 13 9 8 6 3 3 3 5 3 3 5 3 8 7 4 4 6 5 6 3 8 6 4 6 2 5 4 3 1 3 5 8 6 6 4 6 9 7 7 10
19 18 17 17 11 10 4 12 4 2 4 4 5 6 4 5 2 0 6 5 2 7 8 4 3 6 4 5 5 5 5 4 4 3 3 3 5 6 5 10 7 7 7 8 8
22 23 22 19 12 8 8 13 3 2 2 3 3 1 2 7 6 1 1 4 9 7 6 6 8 5 3 5 6 4 5 5 3 4 3 3 1 7 2 7 8 3 8 8 7
10 24 27 15 10 11 17 16 3 4 7 4 3 6 6 2 2 3 3 5 4 5 2 3 1 4 6 4 2 9 7 7 4 3 2 6 6 5 5 4 2 4 7 8 8
7 6 15 17 7 14 22 8 4 3 1 5 5 5 3 5 4 3 7 6 7 5 4 2 2 1 3 7 5 4 6 1 2 2 5 2 1 8 6 4 3 5 8 8 6
5 6 8 8 16 16 8 4 5 5 6 2 4 5 7 4 1 3 9 8 5 4 4 7 4 8 5 6 8 7 7 5 7 4 3 3 6 6 2 1 2 2 3 5 7
5 6 5 5 10 22 6 9 7 6 6 8 4 5 4 3 5 4 5 8 9 10 7 6 4 0 2 4 8 6 5 6 7 3 3 4 6 8 3 4 4 4 4 6 7
3 3 3 6 9 11 10 13 5 2 1 4 7 5 9 7 6 8 8 5 6 10 1 8 3 1 2 3 2 5 8 4 2 3 4 4 5 6 4 7 3 2 5 5 6
4 3 2 8 7 3 6 5 3 2 1 4 6 5 5 8 6 6 7 2 3 8 5 6 4 2 4 7 8 3 3 3 5 5 6 1 6 6 6 8 7 3 3 6 6
3 3 6 8 3 1 3 3 2 1 0 1 3 2 6 8 6 7 11 4 2 7 11 7 5 5 8 2 3 2 8 7 5 5 2 3 9 3 8 8 6 5 5 6 7
3 1 1 2 3 3 3 2 1 0 0 3 4 1 0 6 4 5 5 2 2 5 8 8 4 3 5 2 2 5 4 3 4 3 8 6 11 5 4 5 1 4 6 6 6
2 4 1 1 1 4 5 5 4 3 3 2 3 4 2 3 2 4 3 2 3 2 2 2 3 11 17 5 7 6 7 9 8 3 13 8 4 5 6 6 3 3 6 6 6
1 2 1 4 3 2 2 5 7 4 3 11 6 5 1 2 3 4 2 4 2 2 2 2 6 3 1 2 2 4 7 11 14 23 10 23 12 13 16 13 6 6 6 7 5
3 2 0 1 4 6 5 5 10 7 5 5 7 10 11 5 4 5 4 3 3 2 3 1 3 3 3 4 1 2 5 5 15 14 9 2 7 4 5 7 5 6 7 6 5
2 1 0 1 2 7 8 4 5 6 4 7 9 4 7 9 4 6 6 5 6 4 2 2 5 4 9 10 4 7 17 13 6 6 12 13 14 7 5 9 8 7 7 6 5
Wind_Direction
191 201 196 192 193 191 182 184 191 193 197 200 214 223 246 263 278 245 233 232 203 200 170 150 134 125 106 90 79 126 67 170 199 152 198 145 159 173 262 122 226 198 160 196 163
197 198 190 196 189 188 187 186 190 190 198 205 214 222 256 283 279 245 230 218 193 182 165 156 133 119 54 81 44 87 116 210 196 192 184 172 170 175 134 146 234 255 221 136 162
198 195 184 197 195 185 185 191 191 192 195 201 214 223 248 282 256 243 201 190 183 177 162 149 135 90 76 86 112 136 179 188 224 190 181 151 126 163 138 234 217 207 189 152 165
197 193 185 198 193 190 178 188 187 187 203 205 211 214 243 210 194 264 174 184 184 166 146 129 84 82 108 143 128 125 189 170 186 194 139 147 121 187 193 220 298 216 176 164 167
189 185 186 192 188 190 177 186 183 180 195 211 218 214 164 208 247 180 176 173 170 169 163 124 121 127 150 150 111 131 208 151 116 119 88 95 125 250 253 247 277 64 167 186 191
187 184 184 189 187 187 178 186 186 179 186 197 225 227 200 225 187 174 159 162 165 163 155 139 171 167 106 137 132 139 139 101 139 15 27 66 323 17 266 35 204 204 215 212 211
184 184 186 186 182 182 177 189 186 180 197 209 202 188 165 240 175 158 144 152 167 158 142 176 141 99 128 117 150 94 107 2 199 179 144 138 283 235 246 320 249 213 236 239 238
184 185 190 183 177 176 178 182 180 179 180 196 204 176 232 219 161 165 150 124 136 130 143 122 131 101 81 114 28 77 50 104 292 145 308 119 263 273 327 195 243 228 243 235 245
183 184 188 181 172 172 172 174 167 157 172 175 146 150 244 149 176 185 154 141 119 106 100 114 70 85 47 97 44 20 172 188 310 204 117 156 261 276 29 25 290 294 285 276 268
183 179 186 175 169 164 165 147 133 130 131 120 117 164 165 212 148 157 144 144 119 114 67 48 54 78 48 97 191 182 156 223 237 253 90 239 267 286 280 289 276 287 283 273 270
178 180 179 176 164 162 150 130 58 18 337 190 208 153 152 111 120 141 142 102 89 64 140 29 110 192 197 170 125 136 127 165 247 3 208 234 268 276 289 293 259 257 265 266 259
171 180 178 163 164 167 161 141 169 147 189 201 10 294 163 157 98 339 155 121 124 132 110 53 217 206 122 131 115 125 121 204 303 26 179 355 286 268 268 259 253 265 272 268 281
179 169 167 165 165 159 166 146 128 159 125 189 195 180 192 154 187 190 142 131 116 126 161 157 227 142 124 129 143 171 155 181 180 355 62 346 297 307 293 274 279 264 272 276 260
178 175 160 156 151 160 183 175 111 114 71 235 207 236 142 148 222 312 169 128 91 160 148 206 148 134 140 178 135 169 191 139 143 94 236 25 284 303 307 302 278 331 324 319 307
167 175 171 172 153 165 157 176 149 58 216 188 163 145 150 162 134 282 166 49 152 157 136 229 165 146 163 194 160 194 117 123 92 97 64 326 52 268 341 281 287 321 336 337 352
115 167 172 168 148 159 148 143 109 70 241 166 127 158 130 121 94 112 129 56 125 103 39 153 89 158 182 73 111 151 83 55 55 85 315 222 175 275 208 211 276 317 329 341 347
89 119 164 161 162 156 149 118 63 184 304 198 176 164 110 147 116 138 158 163 158 125 176 53 190 163 130 86 36 83 90 5 354 359 227 2 161 251 241 231 230 304 323 340 356
79 124 101 125 154 154 152 102 159 209 211 92 103 110 177 142 161 126 133 187 243 99 128 157 234 164 184 174 164 185 163 157 196 199 245 70 234 247 184 10 69 78 331 12 37
113 92 88 102 144 162 148 185 208 189 185 146 79 101 183 194 136 136 200 207 194 179 152 151 263 46 151 151 149 195 209 157 106 15 48 215 283 309 58 104 63 33 53 33 33
96 81 37 97 113 146 159 202 203 198 89 131 166 162 179 181 151 175 171 193 206 184 204 199 134 21 148 114 32 160 159 84 13 149 241 268 270 230 184 191 184 83 61 33 29
69 80 135 120 74 65 193 194 171 277 40 169 180 145 180 174 165 194 206 253 195 182 148 145 128 313 113 213 159 132 185 65 127 156 176 220 253 223 180 164 169 150 70 44 36
84 111 156 161 93 170 163 177 40 337 137 246 101 121 172 168 158 197 205 223 64 151 188 183 137 166 200 243 223 222 198 160 157 216 241 162 253 318 149 152 162 143 78 58 59
94 86 8 257 175 177 154 129 160 349 143 185 175 153 168 172 175 195 182 86 139 168 160 179 208 71 357 342 348 209 189 153 107 84 203 148 256 32 106 145 168 87 81 74 68
100 133 280 227 334 153 149 163 161 235 233 356 26 17 154 180 51 166 142 148 92 139 17 35 138 204 222 221 143 194 195 185 178 161 230 222 219 192 221 202 220 126 113 98 84
57 222 279 181 204 167 161 179 167 198 230 175 186 190 146 165 138 171 140 118 105 120 39 169 207 161 87 74 100 174 185 189 201 222 189 246 211 193 198 199 202 165 141 119 91
140 157 195 110 141 175 198 209 205 178 165 209 222 184 179 214 188 175 172 174 145 150 131 24 240 128 265 202 203 296 254 223 224 231 243 112 236 212 147 114 152 167 142 122 105
159 253 250 259 144 185 213 198 194 156 231 204 219 174 200 211 142 173 163 169 135 138 110 144 145 146 247 165 157 273 227 199 208 203 213 225 228 163 150 177 170 156 148 137 110